Latest Weather Observations for Bankstown

IDN60801

Issued at 7:05 am EDT Thursday 27 November 2014 (issued every 30 minutes, with the page automatically refreshed every 10 minutes)

About weather observations | Map of weather stations | Latest weather observations for NSW | Other Formats
Station Details ID: 066137 Name: BANKSTOWN AIRPORT AWS Lat: -33.92 Lon: 150.99 Height: 6.5 m
Data from the previous 72 hours. | See also: Recent months at Bankstown
Date/Time
EDT
Temp
°C
App
Temp
°C
Dew
Point
Rel
Hum
%
Delta-T
°C
Wind Press
QNH
hPa
Press
MSL
hPa
Rain
since 9 am
mm
Dir
 
Spd
km/h
Gust
km/h
Spd
kts
Gust
kts
27/07:02am 17.6 15.5 15.2 86 1.4 SE 20 24 11 13 1021.1 1021.1 2.6
27/07:00am 17.6 15.7 15.2 86 1.4 SSE 19 24 10 13 1021.1 1021.1 2.6
27/06:38am 17.3 15.1 14.8 85 1.4 SSE 20 28 11 15 1020.8 1020.8 1.6
27/06:30am 17.8 15.3 15.2 85 1.5 SSE 22 28 12 15 1020.6 1020.6 1.2
27/06:00am 18.4 16.1 15.6 84 1.6 SE 22 30 12 16 1020.1 1020.1 0.8
27/05:30am 18.7 17.1 15.9 84 1.7 SE 19 24 10 13 1019.6 1019.6 0.4
27/05:05am 18.8 16.6 16.0 84 1.7 SE 22 30 12 16 1019.2 1019.2 0.2
27/05:00am 18.8 16.6 16.0 84 1.7 SE 22 30 12 16 1019.1 1019.1 0.2
27/04:30am 19.6 18.2 16.6 83 1.8 ESE 19 24 10 13 1018.7 1018.7 0.0
27/04:28am 19.5 18.2 16.7 84 1.7 ESE 19 22 10 12 1018.6 1018.6 0.0
27/04:00am 18.7 19.5 16.3 86 1.4 S 7 13 4 7 1018.4 1018.4 0.0
27/03:30am 18.7 19.5 15.8 83 1.7 S 6 7 3 4 1018.1 1018.1 0.0
27/03:00am 18.9 19.7 15.9 83 1.8 S 6 7 3 4 1018.2 1018.2 0.0
27/02:30am 19.1 20.0 16.0 82 1.8 SSE 6 9 3 5 1018.3 1018.3 0.0
27/02:00am 18.6 19.2 15.3 81 1.9 S 6 7 3 4 1018.5 1018.5 0.0
27/01:30am 19.1 19.6 15.6 80 2.1 S 7 7 4 4 1018.8 1018.8 0.0
27/01:00am 19.3 19.4 15.6 79 2.2 S 9 11 5 6 1019.0 1019.0 0.0
27/12:30am 20.0 20.6 15.8 77 2.5 S 7 9 4 5 1019.1 1019.1 0.0
27/12:00am 20.2 20.9 16.0 77 2.5 S 7 11 4 6 1019.2 1019.2 0.0
 
Date/Time
EDT
Temp
°C
App
Temp
°C
Dew
Point
Rel
Hum
%
Delta-T
°C
Wind Press
QNH
hPa
Press
MSL
hPa
Rain
since 9 am
mm
Dir
 
Spd
km/h
Gust
km/h
Spd
kts
Gust
kts
26/11:30pm 19.9 19.9 15.3 75 2.7 S 9 13 5 7 1019.1 1019.1 0.0
26/11:00pm 21.0 21.4 15.3 70 3.4 E 7 11 4 6 1018.9 1018.9 0.0
26/10:30pm 21.2 21.3 15.5 70 3.4 E 9 17 5 9 1018.9 1018.9 0.0
26/10:00pm 21.4 19.9 15.3 68 3.6 E 17 22 9 12 1018.7 1018.7 0.0
26/09:30pm 21.5 21.1 15.1 67 3.8 ENE 11 17 6 9 1018.7 1018.7 0.0
26/09:00pm 21.5 20.4 15.3 68 3.7 E 15 20 8 11 1018.2 1018.2 0.0
26/08:30pm 21.5 20.3 15.1 67 3.8 E 15 22 8 12 1017.8 1017.8 0.0
26/08:00pm 21.8 20.7 15.2 66 3.9 ENE 15 20 8 11 1017.4 1017.4 0.0
26/07:30pm 22.0 19.8 14.9 64 4.2 ENE 20 32 11 17 1017.0 1017.0 0.0
26/07:00pm 22.4 20.0 14.5 61 4.6 ENE 20 32 11 17 1016.5 1016.5 0.0
26/06:30pm 22.9 20.2 14.5 59 5.0 NE 22 30 12 16 1015.8 1015.8 0.0
26/06:00pm 23.6 21.2 14.3 56 5.5 ENE 20 33 11 18 1015.3 1015.3 0.0
26/05:30pm 23.9 21.4 14.0 54 5.8 NE 20 30 11 16 1015.2 1015.2 0.0
26/05:00pm 24.0 21.3 14.7 56 5.5 NE 22 35 12 19 1015.1 1015.1 0.0
26/04:30pm 23.6 20.4 14.3 56 5.5 NE 24 35 13 19 1015.2 1015.2 0.0
26/04:00pm 24.1 21.0 14.5 55 5.7 NE 24 37 13 20 1015.4 1015.4 0.0
26/03:30pm 24.2 21.6 13.7 52 6.1 ENE 20 32 11 17 1015.7 1015.7 0.0
26/03:00pm 24.0 21.2 14.4 55 5.7 ENE 22 28 12 15 1016.1 1016.1 0.0
26/02:30pm 23.6 20.6 13.8 54 5.7 ENE 22 32 12 17 1016.4 1016.4 0.0
26/02:00pm 24.7 22.2 13.6 50 6.5 NNE 19 28 10 15 1016.7 1016.7 0.0
26/01:30pm 23.5 20.9 13.1 52 6.0 N 19 28 10 15 1017.0 1017.0 0.0
26/01:00pm 22.7 19.9 12.6 53 5.7 NE 19 30 10 16 1017.4 1017.4 0.0
26/12:30pm 23.7 21.9 13.3 52 6.0 NNE 15 24 8 13 1017.8 1017.8 0.0
26/12:00pm 22.1 19.8 12.9 56 5.2 NE 17 22 9 12 1018.4 1018.4 0.0
26/11:30am 21.9 20.2 12.5 55 5.3 NE 13 19 7 10 1018.9 1018.9 0.0
26/11:00am 21.9 20.0 11.9 53 5.6 NE 13 20 7 11 1019.0 1019.0 0.0
26/10:30am 21.5 19.8 11.2 52 5.7 NNE 11 20 6 11 1019.1 1019.1 0.0
26/10:00am 21.8 20.1 11.2 51 5.9 NNE 11 19 6 10 1019.2 1019.2 0.0
26/09:30am 22.3 20.2 11.1 49 6.2 N 13 19 7 10 1019.4 1019.4 0.0
26/09:00am 21.5 18.9 10.6 50 5.9 NNE 15 22 8 12 1019.7 1019.7 0.0
26/08:30am 21.4 19.6 10.9 51 5.8 NNE 11 17 6 9 1019.7 1019.7 0.0
26/08:00am 20.9 19.4 11.8 56 5.1 N 11 17 6 9 1019.7 1019.7 0.0
26/07:30am 20.2 18.3 11.9 59 4.6 N 13 19 7 10 1019.5 1019.5 0.0
26/07:00am 19.6 17.3 11.6 60 4.4 NNE 15 20 8 11 1019.4 1019.4 0.0
26/06:30am 19.4 17.8 11.7 61 4.2 NNE 11 17 6 9 1019.3 1019.3 0.0
26/06:00am 19.3 18.2 11.8 62 4.1 NNE 9 13 5 7 1019.3 1019.3 0.0
26/05:30am 19.3 18.2 12.1 63 4.0 NE 9 15 5 8 1019.1 1019.1 0.0
26/05:00am 19.1 18.4 11.9 63 4.0 NE 7 13 4 7 1018.9 1018.9 0.0
26/04:30am 19.1 17.9 11.7 62 4.1 ENE 9 17 5 9 1018.7 1018.7 0.0
26/04:00am 19.5 17.5 11.5 60 4.4 NE 13 22 7 12 1018.9 1018.9 0.0
26/03:30am 19.4 17.9 11.9 62 4.2 NE 11 17 6 9 1019.0 1019.0 0.0
26/03:00am 19.5 18.0 11.8 61 4.2 ENE 11 17 6 9 1019.2 1019.2 0.0
26/02:30am 19.7 17.5 12.0 61 4.3 ENE 15 19 8 10 1019.4 1019.4 0.0
26/02:00am 19.7 17.5 12.0 61 4.3 E 15 20 8 11 1019.6 1019.6 0.0
26/01:30am 19.7 17.1 12.0 61 4.3 E 17 24 9 13 1020.0 1020.0 0.0
26/01:00am 19.8 17.6 12.1 61 4.3 E 15 22 8 12 1020.3 1020.3 0.0
26/12:30am 19.9 17.4 12.2 61 4.3 E 17 24 9 13 1020.6 1020.6 0.0
26/12:00am 19.9 17.0 12.2 61 4.3 E 19 24 10 13 1020.6 1020.6 0.0
 
Date/Time
EDT
Temp
°C
App
Temp
°C
Dew
Point
Rel
Hum
%
Delta-T
°C
Wind Press
QNH
hPa
Press
MSL
hPa
Rain
since 9 am
mm
Dir
 
Spd
km/h
Gust
km/h
Spd
kts
Gust
kts
25/11:30pm 20.0 17.9 12.3 61 4.3 E 15 19 8 10 1020.6 1020.6 0.0
25/11:00pm 20.0 18.2 12.0 60 4.4 E 13 19 7 10 1020.8 1020.8 0.0
25/10:30pm 20.2 19.2 12.2 60 4.5 E 9 13 5 7 1020.9 1020.9 0.0
25/10:00pm 20.1 17.9 12.1 60 4.4 E 15 19 8 10 1020.6 1020.6 0.0
25/09:30pm 20.0 18.1 11.7 59 4.6 E 13 19 7 10 1020.2 1020.2 0.0
25/09:00pm 20.0 17.3 11.7 59 4.6 E 17 22 9 12 1019.9 1019.9 0.0
25/08:30pm 20.0 16.9 11.7 59 4.6 E 19 24 10 13 1019.5 1019.5 0.0
25/08:00pm 20.2 16.9 11.7 58 4.7 ESE 20 28 11 15 1019.1 1019.1 0.0
25/07:30pm 20.2 16.6 11.7 58 4.7 ESE 22 28 12 15 1018.5 1018.5 0.0
25/07:00pm 20.7 16.9 11.3 55 5.2 ESE 22 30 12 16 1017.9 1017.9 0.0
25/06:30pm 21.0 16.9 11.3 54 5.4 ESE 24 30 13 16 1017.3 1017.3 0.0
25/06:00pm 21.1 16.9 11.2 53 5.5 E 24 37 13 20 1016.7 1016.7 0.0
25/05:30pm 21.5 17.0 11.5 53 5.6 E 26 37 14 20 1016.3 1016.3 0.0
25/05:00pm 21.8 17.4 11.8 53 5.6 ESE 26 41 14 22 1016.0 1016.0 0.0
25/04:30pm 22.1 17.7 11.8 52 5.8 E 26 35 14 19 1016.0 1016.0 0.0
25/04:00pm 23.1 18.7 11.8 49 6.4 E 26 35 14 19 1015.8 1015.8 0.0
25/03:30pm 22.5 18.2 10.9 48 6.4 E 24 33 13 18 1015.6 1015.6 0.0
25/03:00pm 23.3 18.5 11.7 48 6.5 ESE 28 33 15 18 1015.8 1015.8 0.0
25/02:30pm 22.8 19.0 12.4 52 5.9 E 24 32 13 17 1016.0 1016.0 0.0
25/02:00pm 22.5 18.7 12.4 52 5.7 E 24 30 13 16 1016.1 1016.1 0.0
25/01:30pm 22.6 18.8 12.3 52 5.8 ESE 24 33 13 18 1016.0 1016.0 0.0
25/01:00pm 23.3 20.1 13.2 53 5.8 ESE 22 30 12 16 1016.1 1016.1 0.0
25/12:30pm 22.8 19.0 12.4 52 5.9 ESE 24 30 13 16 1016.0 1016.0 0.0
25/12:00pm 22.5 19.7 12.7 54 5.6 ESE 19 28 10 15 1015.9 1015.9 0.0
25/11:30am 22.6 19.6 12.5 53 5.7 ESE 20 26 11 14 1015.6 1015.6 0.0
25/11:00am 24.7 19.7 3.4 25 10.4 WSW 19 24 10 13 1015.4 1015.4 0.0
25/10:30am 24.2 19.7 4.0 27 9.9 SW 17 22 9 12 1015.3 1015.3 0.0
25/10:00am 23.9 18.4 2.1 24 10.3 SW 20 32 11 17 1014.6 1014.6 0.0
25/09:30am 24.1 17.5 2.3 24 10.4 SW 26 41 14 22 1014.1 1014.1 0.0
25/09:00am 23.8 22.3 14.2 55 5.7 S 15 22 8 12 1013.3 1013.3 8.8
25/08:30am 24.1 21.8 14.2 54 5.8 SW 19 28 10 15 1012.7 1012.7 8.8
25/08:00am 23.6 26.2 17.6 69 3.7 CALM 0 0 0 0 1011.8 1011.8 8.8
25/07:30am 23.4 25.5 17.2 68 3.8 SSW 2 7 1 4 1011.2 1011.2 8.8
25/07:00am 23.2 24.3 18.1 73 3.2 SW 9 13 5 7 1010.3 1010.3 8.8
25/06:30am 22.8 24.2 17.7 73 3.2 NW 7 13 4 7 1009.6 1009.6 8.8
25/06:00am 23.2 23.3 17.4 70 3.6 NW 13 19 7 10 1009.1 1009.1 8.8
25/05:30am 23.4 23.2 17.6 70 3.6 N 15 22 8 12 1008.3 1008.3 8.8
25/05:00am 23.1 23.1 18.0 73 3.2 NNW 15 19 8 10 1007.9 1007.9 8.8
25/04:30am 23.1 22.4 18.2 74 3.1 NNW 19 22 10 12 1008.0 1008.0 8.8
25/04:00am 23.3 21.9 18.0 72 3.3 NNW 22 30 12 16 1007.9 1007.9 8.8
25/03:30am 23.1 22.5 18.4 75 3.0 NNW 19 26 10 14 1007.7 1007.7 8.8
25/03:00am 23.1 22.3 18.4 75 3.0 N 20 30 11 16 1007.2 1007.2 8.8
25/02:30am 23.0 22.5 19.0 78 2.5 N 20 30 11 16 1007.4 1007.4 8.8
25/02:00am 23.6 23.3 19.1 76 2.9 NNW 19 26 10 14 1008.6 1008.6 8.4
25/01:30am 23.9 25.6 20.2 80 2.4 NNW 11 17 6 9 1008.5 1008.5 8.2
25/01:00am 23.4 26.7 20.0 81 2.2 NW 2 9 1 5 1008.8 1008.8 8.0
25/12:30am 23.4 25.3 19.8 80 2.3 NNW 9 11 5 6 1008.8 1008.8 8.0
25/12:00am 23.4 25.6 19.5 79 2.5 N 7 11 4 6 1008.9 1008.9 8.0
 
Date/Time
EDT
Temp
°C
App
Temp
°C
Dew
Point
Rel
Hum
%
Delta-T
°C
Wind Press
QNH
hPa
Press
MSL
hPa
Rain
since 9 am
mm
Dir
 
Spd
km/h
Gust
km/h
Spd
kts
Gust
kts
24/11:30pm 23.1 25.9 19.7 81 2.2 N 4 9 2 5 1009.0 1009.0 8.0
24/11:00pm 23.1 25.4 19.5 80 2.3 N 6 11 3 6 1009.3 1009.3 8.0
24/10:30pm 23.4 26.3 19.1 77 2.7 S 2 7 1 4 1009.1 1009.1 8.0
24/10:00pm 23.1 25.6 19.1 78 2.5 S 4 7 2 4 1009.5 1009.5 8.0
24/09:30pm 23.0 26.4 19.4 80 2.3 CALM 0 9 0 5 1009.1 1009.1 8.0
24/09:00pm 22.9 24.6 19.3 80 2.3 SSW 9 9 5 5 1009.2 1009.2 8.0
24/08:30pm 22.9 26.2 19.1 79 2.4 CALM 0 0 0 0 1008.6 1008.6 8.0
24/08:00pm 22.9 25.0 19.3 80 2.3 WSW 7 11 4 6 1008.8 1008.8 8.0
24/07:30pm 23.5 25.3 18.8 75 3.0 ESE 7 11 4 6 1008.2 1008.2 8.0
24/07:00pm 23.6 25.6 18.7 74 3.1 SE 6 11 3 6 1008.1 1008.1 8.0
24/06:30pm 23.5 23.4 18.8 75 3.0 ENE 17 24 9 13 1008.3 1008.3 8.0
24/06:00pm 23.6 23.0 18.9 75 3.0 E 20 28 11 15 1007.4 1007.4 8.0
24/05:30pm 23.8 24.0 20.1 80 2.4 SE 19 24 10 13 1007.6 1007.6 8.0
24/05:00pm 23.1 23.1 20.2 84 1.9 ESE 20 28 11 15 1007.7 1007.7 8.0
24/04:30pm 23.0 23.2 20.5 86 1.6 ESE 20 26 11 14 1007.7 1007.7 8.0
24/04:13pm 23.0 23.4 20.7 87 1.5 SE 19 22 10 12 1007.7 1007.7 8.0
24/04:00pm 22.4 21.5 19.9 86 1.6 E 24 28 13 15 1007.4 1007.4 8.0
24/03:52pm 22.5 21.7 19.3 82 2.0 SE 22 28 12 15 1007.9 1007.9 7.0
24/03:48pm 23.2 22.4 18.5 75 3.0 WSW 20 28 11 15 1010.1 1010.1 3.0
24/03:39pm 25.1 24.9 18.5 67 4.2 SW 17 24 9 13 1009.6 1009.6 0.0
24/03:30pm 26.2 24.9 17.3 58 5.6 SE 20 28 11 15 1007.6 1007.6 0.0
24/03:00pm 28.2 24.9 16.1 47 7.5 ESE 28 35 15 19 1006.9 1006.9 0.0
24/02:30pm 30.5 27.3 15.4 40 9.3 E 26 33 14 18 1007.2 1007.2 0.0
24/02:00pm 32.1 29.4 15.6 37 10.3 E 24 35 13 19 1007.8 1007.8 0.0
24/01:30pm 32.7 31.7 15.7 36 10.6 E 15 24 8 13 1008.4 1008.4 0.0
24/01:00pm 31.2 31.1 16.0 40 9.5 E 11 19 6 10 1009.3 1009.3 0.0
24/12:30pm 31.1 32.5 17.8 45 8.5 WNW 7 11 4 6 1010.2 1010.2 0.0
24/12:00pm 29.1 30.0 17.6 50 7.3 S 9 17 5 9 1011.0 1011.0 0.0
24/11:30am 27.4 28.9 17.6 55 6.2 N 6 11 3 6 1012.1 1012.1 0.0
24/11:00am 26.4 27.9 17.7 58 5.5 E 6 9 3 5 1013.0 1013.0 0.0
24/10:30am 24.9 25.7 17.4 63 4.7 SSW 9 15 5 8 1013.6 1013.6 0.0
24/10:00am 24.2 25.9 17.2 65 4.3 SE 4 11 2 6 1014.2 1014.2 0.0
24/09:30am 23.7 25.6 17.7 69 3.7 E 4 11 2 6 1014.6 1014.6 0.0
24/09:09am 23.2 24.7 17.6 71 3.5 ESE 6 11 3 6 1014.9 1014.9 0.0
24/09:00am 23.0 24.5 17.5 71 3.4 SE 6 9 3 5 1015.2 1015.2 0.0
24/08:30am 22.4 23.3 17.5 74 3.0 ESE 9 13 5 7 1015.3 1015.3 0.0
24/08:00am 22.0 21.4 17.6 76 2.7 E 17 24 9 13 1014.7 1014.7 0.0
24/07:30am 22.1 21.6 17.7 76 2.7 E 17 24 9 13 1014.7 1014.7 0.0

Other Formats:

Comma delimited format used in spreadsheet applications
http://www.bom.gov.au/fwo/IDN60801/IDN60801.94765.axf

JavaScript Object Notation format (JSON) in row-major order
http://www.bom.gov.au/fwo/IDN60801/IDN60801.94765.json